Home > Weather > Wedel > Past weeks

Flag for Germany Past Weather in Wedel, Schleswig-Holstein, Germany — Yesterday and Last 2 Weeks

Now
66 °F

Broken clouds.


Feels Like: 66 °F
Forecast: 56 / 67 °F
Wind: 10 mph from Northwest

Location: Hamburg-Fuhlsbuettel

Current Time: Jun 25, 2016 at 7:58:06 PM

Latest Report: Jun 25, 2016 at 7:20 PM


Visibility: N/A

Pressure: 29.80 "Hg

Humidity: 94%

Dew Point: 64 °F

Location of WedelLocation

Past Weather in Wedel — Graph

°F

Wedel Temperature Yesterday

Maximum temperature yesterday: 81 °F (at 4:50 PM)
Minimum temperature yesterday: 66 °F (at 2:50 AM)
Average temperature yesterday: 71 °F

High & Low Weather Summary for the Past Weeks

 TemperatureHumidityPressure
High90 °F (Jun 23, 5:50 PM)100% (Jun 11, 3:50 AM)30.21 "Hg (Jun 11, 3:50 AM)
Low45 °F (Jun 11, 4:20 AM)35% (Jun 11, 4:20 PM)29.45 "Hg (Jun 14, 12:20 PM)
Average62 °F80%29.85 "Hg
* Reported Jun 10 6:20 PM — Jun 25 6:20 PM, Wedel, Weather by CustomWeather, © 2016

Note: Actual official high and low records may vary slightly from our data, if they occured in-between our weather recording intervals... More about our weather records

Advertising

Wedel Weather History for the Previous 24 Hours

Scroll right to see more
 ConditionsComfort  
Time TempWeatherWind HumidityBarometerVisibility
6:20 PM
Sat, Jun 25
66 °FPartly sunny.10 mph94%29.80 "HgN/A
5:50 PM68 °FPartly sunny.8 mph88%29.83 "HgN/A
5:20 PM68 °FScattered clouds.12 mph94%29.80 "HgN/A
4:50 PM68 °FPartly sunny.10 mph94%29.83 "HgN/A
4:20 PM66 °FLight rain. Broken clouds.10 mph100%29.83 "HgN/A
3:50 PM66 °FRain. Partly sunny.9 mph94%29.86 "Hg4 mi
3:20 PM66 °FLight rain. Partly sunny.7 mph94%29.86 "Hg5 mi
2:50 PM66 °FThundershowers. Broken clouds.13 mph94%29.89 "Hg3 mi
2:20 PM66 °FThunderstorms. Partly sunny.10 mph94%29.92 "HgN/A
1:50 PM66 °FLow clouds.9 mph94%29.89 "HgN/A
1:20 PM66 °FLow clouds.8 mph94%29.89 "HgN/A
12:50 PM66 °FLow clouds.8 mph94%29.92 "HgN/A
12:20 PM66 °FLow clouds.10 mph94%29.92 "HgN/A
11:50 AM66 °FPartly sunny.9 mph94%29.92 "HgN/A
11:20 AM66 °FBroken clouds.8 mph94%29.92 "Hg5 mi
10:50 AM64 °FSprinkles. Fog.7 mph100%29.95 "Hg3 mi
10:20 AM64 °FThunderstorms. Fog.6 mph94%29.98 "Hg3 mi
9:50 AM64 °FThunderstorms. Fog.3 mph100%29.95 "Hg2 mi
9:20 AM64 °FThunderstorms. Fog.6 mph94%29.95 "Hg2 mi
8:50 AM64 °FFog.7 mph94%29.98 "Hg3 mi
8:20 AM64 °FFog.7 mph94%29.95 "Hg3 mi
7:50 AM64 °FFog.6 mph94%29.95 "Hg3 mi
7:20 AM64 °FFog.7 mph94%29.95 "Hg3 mi
6:50 AM64 °FFog.6 mph94%29.95 "Hg3 mi
6:20 AM64 °FSprinkles. Scattered clouds.7 mph94%29.95 "Hg3 mi
5:50 AM64 °FScattered showers. Passing clouds.6 mph94%29.98 "Hg4 mi
5:20 AM64 °FPassing clouds.7 mph94%29.98 "Hg4 mi
4:50 AM64 °FPassing clouds.8 mph94%29.98 "Hg4 mi
4:20 AM64 °FPassing clouds.7 mph94%30.01 "Hg4 mi
3:50 AM64 °FPassing clouds.7 mph94%30.01 "Hg4 mi
3:20 AM64 °FPassing clouds.7 mph100%30.01 "Hg4 mi
2:50 AM64 °FPassing clouds.7 mph100%30.01 "Hg4 mi
2:20 AM64 °FPartly cloudy.5 mph100%30.01 "Hg4 mi
1:50 AM64 °FPassing clouds.5 mph100%30.04 "Hg4 mi
1:20 AM64 °FPartly cloudy.7 mph100%30.04 "Hg4 mi
12:50 AM66 °FFog.8 mph94%30.04 "Hg3 mi
12:20 AM64 °FSprinkles. Passing clouds.6 mph100%30.04 "Hg3 mi
11:50 PM
Fri, Jun 24
66 °FPartly cloudy.10 mph94%30.04 "Hg4 mi
11:20 PM66 °FPassing clouds.9 mph94%30.01 "Hg4 mi
10:50 PM66 °FFog.10 mph94%30.01 "Hg3 mi
10:20 PM66 °FFog.15 mph100%30.01 "Hg3 mi
9:50 PM70 °FFog.7 mph94%30.01 "Hg2 mi
9:20 PM70 °FFog.3 mph94%30.04 "Hg3 mi
8:50 PM70 °FScattered showers. Partly sunny.8 mph94%30.01 "Hg4 mi
8:20 PM70 °FSprinkles. Broken clouds.10 mph94%30.04 "Hg3 mi
7:50 PM70 °FThunderstorms. Partly sunny.17 mph94%30.04 "Hg1 mi
7:20 PM75 °FThundershowers. Broken clouds.9 mph78%30.01 "HgN/A
Weather by CustomWeather, © 2016

See weather overviewHow to use our weather pages